BEL5BV EBBR-LFPG

Flight info

Callsign BEL5BV
Flight time 0h 42m
Altitude 22000
Route CIV Y50 MATIX
Aircraft A320/M-DE3FGHIJ1LORVWY/H

Departure

Time 2026-05-08 20:19
Airport Brussels Airport (EBBR)

Arrival

Time 2026-05-08 21:02
Airport Charles de Gaulle International Airport (LFPG)
Time Latitude Longitude Altitude Speed Heading
2026-05-08 19:57 50.90409 4.48594 118 ft 0 kts 155°
2026-05-08 20:10 50.90422 4.48584 121 ft 4 kts 153°
2026-05-08 20:10 50.90445 4.48564 118 ft 4 kts 145°
2026-05-08 20:11 50.90466 4.48537 116 ft 4 kts 130°
2026-05-08 20:11 50.90478 4.48503 118 ft 4 kts 83°
2026-05-08 20:11 50.90477 4.48492 118 ft 0 kts 66°
2026-05-08 20:13 50.90480 4.48505 117 ft 7 kts 66°
2026-05-08 20:13 50.90525 4.48660 117 ft 21 kts 64°
2026-05-08 20:13 50.90589 4.48879 118 ft 23 kts 65°
2026-05-08 20:14 50.90644 4.49085 119 ft 17 kts 84°
2026-05-08 20:14 50.90565 4.49194 120 ft 15 kts 154°
2026-05-08 20:14 50.90475 4.49258 118 ft 14 kts 155°
2026-05-08 20:14 50.90371 4.49333 124 ft 17 kts 155°
2026-05-08 20:15 50.90273 4.49401 126 ft 15 kts 192°
2026-05-08 20:15 50.90174 4.49361 129 ft 18 kts 194°
2026-05-08 20:15 50.90039 4.49306 131 ft 21 kts 195°
2026-05-08 20:15 50.89900 4.49249 137 ft 20 kts 194°
2026-05-08 20:16 50.89769 4.49196 145 ft 18 kts 194°
2026-05-08 20:16 50.89659 4.49149 151 ft 13 kts 200°
2026-05-08 20:16 50.89569 4.49068 155 ft 17 kts 198°
2026-05-08 20:16 50.89471 4.49026 159 ft 12 kts 193°
2026-05-08 20:17 50.89378 4.49037 164 ft 14 kts 135°
2026-05-08 20:17 50.89314 4.49085 167 ft 8 kts 192°
2026-05-08 20:17 50.89275 4.49072 169 ft 3 kts 192°
2026-05-08 20:17 50.89263 4.49066 170 ft 7 kts 196°
2026-05-08 20:18 50.89183 4.49031 176 ft 12 kts 195°
2026-05-08 20:18 50.89141 4.49065 176 ft 7 kts 79°
2026-05-08 20:18 50.89161 4.49153 176 ft 18 kts 70°
2026-05-08 20:18 50.89294 4.49727 177 ft 91 kts 70°
2026-05-08 20:19 50.89588 4.50991 175 ft 148 kts 70°
2026-05-08 20:19 50.89967 4.52626 609 ft 158 kts 70°
2026-05-08 20:19 50.90405 4.54214 1302 ft 157 kts 63°
2026-05-08 20:19 50.90910 4.55756 1958 ft 162 kts 63°
2026-05-08 20:20 50.91472 4.57446 2300 ft 184 kts 63°
2026-05-08 20:20 50.92104 4.59353 2629 ft 207 kts 63°
2026-05-08 20:20 50.92811 4.61497 2980 ft 232 kts 63°
2026-05-08 20:20 50.93582 4.63878 3537 ft 250 kts 67°
2026-05-08 20:21 50.94190 4.66463 4378 ft 256 kts 72°
2026-05-08 20:21 50.94749 4.69214 5262 ft 261 kts 73°
2026-05-08 20:21 50.95278 4.71969 6069 ft 268 kts 74°
2026-05-08 20:21 50.95536 4.74916 6805 ft 275 kts 96°
2026-05-08 20:22 50.94992 4.77823 7580 ft 278 kts 121°
2026-05-08 20:22 50.93721 4.80124 8377 ft 281 kts 146°
2026-05-08 20:22 50.91965 4.81497 9195 ft 284 kts 159°
2026-05-08 20:22 50.90702 4.82193 9755 ft 286 kts 169°
2026-05-08 20:23 50.88026 4.82086 10483 ft 301 kts 198°
2026-05-08 20:23 50.86177 4.80477 10713 ft 322 kts 223°
2026-05-08 20:23 50.84842 4.77562 11182 ft 333 kts 245°
2026-05-08 20:23 50.83888 4.74185 11884 ft 338 kts 245°
2026-05-08 20:24 50.82921 4.70772 12606 ft 342 kts 245°
2026-05-08 20:24 50.81933 4.67320 13346 ft 346 kts 245°
2026-05-08 20:24 50.80931 4.63837 14032 ft 351 kts 245°
2026-05-08 20:24 50.79915 4.60309 14666 ft 354 kts 245°
2026-05-08 20:25 50.78885 4.56751 15316 ft 357 kts 245°
2026-05-08 20:25 50.77850 4.53175 15958 ft 360 kts 245°
2026-05-08 20:25 50.76806 4.49559 16612 ft 363 kts 245°
2026-05-08 20:25 50.75757 4.45926 17232 ft 366 kts 245°
2026-05-08 20:26 50.74698 4.42261 17865 ft 369 kts 245°
2026-05-08 20:26 50.73629 4.38561 18482 ft 372 kts 245°
2026-05-08 20:26 50.72547 4.34834 19005 ft 375 kts 245°
2026-05-08 20:26 50.71455 4.31079 19524 ft 379 kts 246°
2026-05-08 20:27 50.70349 4.27285 20036 ft 382 kts 246°
2026-05-08 20:27 50.69230 4.23457 20562 ft 386 kts 246°
2026-05-08 20:27 50.68099 4.19600 21070 ft 389 kts 246°
2026-05-08 20:27 50.66955 4.15709 21591 ft 393 kts 246°
2026-05-08 20:28 50.65802 4.11779 22004 ft 397 kts 246°
2026-05-08 20:28 50.64644 4.07828 22101 ft 396 kts 246°
2026-05-08 20:28 50.63485 4.03897 22114 ft 395 kts 246°
2026-05-08 20:28 50.62323 3.99981 22114 ft 394 kts 246°
2026-05-08 20:29 50.61165 3.96068 22110 ft 394 kts 246°
2026-05-08 20:29 50.59924 3.92229 22110 ft 395 kts 238°
2026-05-08 20:29 50.58195 3.88950 22109 ft 396 kts 223°
2026-05-08 20:29 50.55947 3.86441 22111 ft 398 kts 207°
2026-05-08 20:30 50.53350 3.84942 22109 ft 399 kts 192°
2026-05-08 20:30 50.50588 3.84531 22112 ft 400 kts 178°
2026-05-08 20:30 50.47819 3.84952 22109 ft 400 kts 173°
2026-05-08 20:30 50.45055 3.85426 22106 ft 400 kts 174°
2026-05-08 20:31 50.42287 3.85898 22105 ft 400 kts 174°
2026-05-08 20:31 50.39524 3.86366 22104 ft 400 kts 174°
2026-05-08 20:31 50.36753 3.86836 22102 ft 400 kts 174°
2026-05-08 20:31 50.33989 3.87307 22096 ft 400 kts 174°
2026-05-08 20:32 50.31221 3.87778 22096 ft 400 kts 174°
2026-05-08 20:32 50.28451 3.88251 22095 ft 400 kts 174°
2026-05-08 20:32 50.25684 3.88725 22089 ft 401 kts 173°
2026-05-08 20:32 50.22910 3.89203 22090 ft 401 kts 173°
2026-05-08 20:33 50.20140 3.89680 22091 ft 401 kts 174°
2026-05-08 20:33 50.17364 3.90149 22092 ft 401 kts 174°
2026-05-08 20:33 50.14594 3.90613 22094 ft 401 kts 174°
2026-05-08 20:33 50.11816 3.91076 22094 ft 401 kts 175°
2026-05-08 20:34 50.09031 3.90943 22088 ft 401 kts 191°
2026-05-08 20:34 50.06387 3.89606 22089 ft 400 kts 204°
2026-05-08 20:34 50.01291 3.86077 22088 ft 401 kts 205°
2026-05-08 20:35 49.98747 3.84288 22086 ft 401 kts 205°
2026-05-08 20:35 49.96200 3.82499 22086 ft 401 kts 205°
2026-05-08 20:35 49.93659 3.80716 22084 ft 402 kts 205°
2026-05-08 20:35 49.91107 3.78939 22043 ft 400 kts 205°
2026-05-08 20:36 49.88632 3.77220 21763 ft 391 kts 205°
2026-05-08 20:36 49.86143 3.75494 21504 ft 383 kts 205°
2026-05-08 20:36 49.83719 3.73820 21245 ft 380 kts 205°
2026-05-08 20:36 49.81342 3.72178 20992 ft 377 kts 204°
2026-05-08 20:37 49.78956 3.70525 20733 ft 376 kts 205°
2026-05-08 20:37 49.76544 3.68855 20480 ft 374 kts 205°
2026-05-08 20:37 49.74204 3.67236 20229 ft 372 kts 205°
2026-05-08 20:37 49.71817 3.65587 19970 ft 369 kts 204°
2026-05-08 20:38 49.69510 3.64000 19732 ft 367 kts 204°
2026-05-08 20:38 49.67182 3.62402 19488 ft 365 kts 205°
2026-05-08 20:38 49.64872 3.60818 19247 ft 362 kts 204°
2026-05-08 20:38 49.62581 3.59245 19008 ft 359 kts 204°
2026-05-08 20:39 49.60310 3.57688 18705 ft 355 kts 204°
2026-05-08 20:39 49.58063 3.56149 18252 ft 353 kts 204°
2026-05-08 20:39 49.55823 3.54614 17777 ft 351 kts 204°
2026-05-08 20:39 49.53601 3.53093 17338 ft 348 kts 204°
2026-05-08 20:40 49.51394 3.51583 16897 ft 346 kts 204°
2026-05-08 20:40 49.49206 3.50091 16469 ft 343 kts 204°
2026-05-08 20:40 49.47028 3.48606 16037 ft 341 kts 204°
2026-05-08 20:40 49.44877 3.47092 15613 ft 339 kts 209°
2026-05-08 20:41 49.42956 3.45027 15208 ft 337 kts 223°
2026-05-08 20:41 49.41441 3.42342 15065 ft 332 kts 236°
2026-05-08 20:41 49.40370 3.39211 15044 ft 332 kts 247°
2026-05-08 20:41 49.39484 3.35936 14607 ft 333 kts 247°
2026-05-08 20:42 49.38596 3.32654 14193 ft 331 kts 247°
2026-05-08 20:42 49.37724 3.29416 13838 ft 327 kts 247°
2026-05-08 20:42 49.36862 3.26200 13544 ft 323 kts 247°
2026-05-08 20:42 49.36300 3.24094 13373 ft 322 kts 247°
2026-05-08 20:43 49.35452 3.20923 13116 ft 320 kts 247°
2026-05-08 20:43 49.34608 3.17777 12861 ft 318 kts 247°
2026-05-08 20:43 49.33765 3.14644 12604 ft 317 kts 247°
2026-05-08 20:43 49.32924 3.11531 12352 ft 315 kts 247°
2026-05-08 20:44 49.32084 3.08430 12097 ft 315 kts 247°
2026-05-08 20:44 49.31243 3.05337 11843 ft 314 kts 247°
2026-05-08 20:44 49.30406 3.02259 11593 ft 312 kts 247°
2026-05-08 20:44 49.29573 2.99195 11352 ft 311 kts 247°
2026-05-08 20:45 49.28740 2.96142 11145 ft 310 kts 247°
2026-05-08 20:45 49.27911 2.93103 11081 ft 309 kts 247°
2026-05-08 20:45 49.27081 2.90063 11091 ft 310 kts 247°
2026-05-08 20:45 49.26256 2.87035 11084 ft 303 kts 247°
2026-05-08 20:46 49.25466 2.84132 11087 ft 288 kts 247°
2026-05-08 20:46 49.24703 2.81333 11089 ft 283 kts 247°
2026-05-08 20:46 49.23943 2.78551 11090 ft 283 kts 247°
2026-05-08 20:46 49.23184 2.75783 11090 ft 282 kts 247°
2026-05-08 20:47 49.22425 2.73013 11091 ft 282 kts 247°
2026-05-08 20:47 49.21665 2.70243 11087 ft 282 kts 247°
2026-05-08 20:47 49.20910 2.67512 11086 ft 282 kts 247°
2026-05-08 20:47 49.20144 2.64747 11084 ft 284 kts 247°
2026-05-08 20:48 49.19368 2.61945 10778 ft 287 kts 247°
2026-05-08 20:48 49.18592 2.59126 10365 ft 288 kts 249°
2026-05-08 20:48 49.18098 2.56181 10011 ft 285 kts 264°
2026-05-08 20:48 49.18011 2.53181 9705 ft 281 kts 267°
2026-05-08 20:49 49.17733 2.50239 9315 ft 279 kts 258°
2026-05-08 20:49 49.17327 2.47354 8928 ft 277 kts 257°
2026-05-08 20:49 49.16912 2.44483 8530 ft 276 kts 257°
2026-05-08 20:49 49.16504 2.41630 8151 ft 274 kts 257°
2026-05-08 20:50 49.16100 2.38789 7735 ft 274 kts 257°
2026-05-08 20:50 49.15700 2.35951 7338 ft 272 kts 257°
2026-05-08 20:50 49.15304 2.33128 6996 ft 269 kts 257°
2026-05-08 20:50 49.14920 2.30390 6863 ft 257 kts 256°
2026-05-08 20:51 49.14559 2.27766 6505 ft 249 kts 257°
2026-05-08 20:51 49.14204 2.25181 5889 ft 248 kts 257°
2026-05-08 20:51 49.13855 2.22598 5265 ft 249 kts 257°
2026-05-08 20:51 49.13504 2.20003 4770 ft 250 kts 257°
2026-05-08 20:52 49.12954 2.17516 4393 ft 247 kts 241°
2026-05-08 20:52 49.12103 2.15245 4042 ft 245 kts 237°
2026-05-08 20:52 49.11213 2.13025 4011 ft 247 kts 237°
2026-05-08 20:52 49.10309 2.10785 4011 ft 248 kts 237°
2026-05-08 20:53 49.09402 2.08542 4011 ft 248 kts 237°
2026-05-08 20:53 49.08492 2.06301 4010 ft 248 kts 237°
2026-05-08 20:53 49.07585 2.04065 4006 ft 248 kts 237°
2026-05-08 20:53 49.06676 2.01830 4012 ft 248 kts 237°
2026-05-08 20:54 49.05624 1.99761 4010 ft 247 kts 217°
2026-05-08 20:54 49.04094 1.98713 4010 ft 241 kts 185°
2026-05-08 20:54 49.02492 1.98996 4009 ft 230 kts 157°
2026-05-08 20:54 49.01140 2.00235 4010 ft 227 kts 135°
2026-05-08 20:55 49.00204 2.02139 4009 ft 225 kts 114°
2026-05-08 20:55 48.99810 2.04432 4009 ft 225 kts 92°
2026-05-08 20:55 48.99899 2.06816 4009 ft 226 kts 85°
2026-05-08 20:55 49.00043 2.09203 4009 ft 226 kts 85°
2026-05-08 20:56 49.00184 2.11590 4009 ft 226 kts 85°
2026-05-08 20:56 49.00322 2.13982 4009 ft 226 kts 85°
2026-05-08 20:56 49.00458 2.16367 4011 ft 226 kts 85°
2026-05-08 20:56 49.00595 2.18754 4010 ft 226 kts 85°
2026-05-08 20:57 49.00731 2.21142 4006 ft 226 kts 85°
2026-05-08 20:57 49.00867 2.23538 3998 ft 228 kts 85°
2026-05-08 20:57 49.01003 2.25940 3801 ft 226 kts 85°
2026-05-08 20:57 49.01137 2.28311 3517 ft 223 kts 85°
2026-05-08 20:58 49.01268 2.30657 3225 ft 221 kts 85°
2026-05-08 20:58 49.01395 2.32926 2936 ft 209 kts 85°
2026-05-08 20:58 49.01515 2.35065 2669 ft 196 kts 85°
2026-05-08 20:58 49.01626 2.37064 2427 ft 183 kts 85°
2026-05-08 20:59 49.01729 2.38938 2165 ft 171 kts 84°
2026-05-08 20:59 49.01824 2.40647 1972 ft 152 kts 84°
2026-05-08 20:59 49.01908 2.42177 1760 ft 140 kts 85°
2026-05-08 20:59 49.01987 2.43620 1574 ft 135 kts 85°
2026-05-08 21:00 49.02065 2.45035 1388 ft 134 kts 85°
2026-05-08 21:00 49.02143 2.46443 1209 ft 134 kts 84°
2026-05-08 21:00 49.02224 2.47860 1005 ft 135 kts 84°
2026-05-08 21:00 49.02290 2.49301 844 ft 135 kts 84°
2026-05-08 21:01 49.02366 2.50729 618 ft 134 kts 82°
2026-05-08 21:01 49.02454 2.52146 433 ft 134 kts 83°
2026-05-08 21:01 49.02529 2.53519 356 ft 116 kts 85°
2026-05-08 21:01 49.02581 2.54470 355 ft 65 kts 85°
2026-05-08 21:02 49.02607 2.54910 357 ft 31 kts 85°
2026-05-08 21:02 49.02589 2.55220 360 ft 28 kts 105°
2026-05-08 21:02 49.02537 2.55402 358 ft 15 kts 115°
2026-05-08 21:02 49.02502 2.55515 357 ft 9 kts 116°
2026-05-08 21:03 49.02487 2.55562 356 ft 1 kts 116°
2026-05-08 21:03 49.02485 2.55566 358 ft 0 kts 116°
2026-05-08 21:04 49.02470 2.55593 360 ft 7 kts 142°
2026-05-08 21:04 49.02396 2.55615 354 ft 14 kts 175°
2026-05-08 21:04 49.02290 2.55629 354 ft 15 kts 175°
2026-05-08 21:04 49.02214 2.55639 354 ft 9 kts 175°
2026-05-08 21:05 49.02156 2.55646 357 ft 8 kts 175°
2026-05-08 21:05 49.02107 2.55652 359 ft 6 kts 175°
2026-05-08 21:05 49.02065 2.55657 357 ft 5 kts 175°
2026-05-08 21:05 49.01996 2.55666 354 ft 13 kts 175°
2026-05-08 21:06 49.01913 2.55662 358 ft 11 kts 209°
2026-05-08 21:06 49.01887 2.55568 362 ft 9 kts 265°
2026-05-08 21:06 49.01882 2.55475 354 ft 8 kts 265°
2026-05-08 21:06 49.01877 2.55393 354 ft 7 kts 265°
2026-05-08 21:07 49.01873 2.55322 358 ft 6 kts 265°
2026-05-08 21:07 49.01867 2.55211 354 ft 16 kts 265°
2026-05-08 21:07 49.01860 2.55085 358 ft 8 kts 265°
2026-05-08 21:07 49.01856 2.55005 354 ft 7 kts 265°
2026-05-08 21:08 49.01852 2.54935 354 ft 6 kts 265°
2026-05-08 21:08 49.01804 2.54860 354 ft 14 kts 186°
2026-05-08 21:08 49.01710 2.54874 354 ft 13 kts 174°
2026-05-08 21:08 49.01627 2.54886 354 ft 11 kts 174°
2026-05-08 21:09 49.01554 2.54896 354 ft 10 kts 174°
2026-05-08 21:09 49.01488 2.54906 360 ft 9 kts 175°
2026-05-08 21:09 49.01407 2.54919 363 ft 17 kts 170°
2026-05-08 21:09 49.01278 2.54963 354 ft 19 kts 182°
2026-05-08 21:10 49.01225 2.54818 361 ft 16 kts 265°
2026-05-08 21:10 49.01216 2.54656 357 ft 15 kts 265°
2026-05-08 21:10 49.01208 2.54509 354 ft 13 kts 265°
2026-05-08 21:10 49.01223 2.54374 354 ft 14 kts 299°
2026-05-08 21:11 49.01317 2.54321 348 ft 16 kts 12°
2026-05-08 21:11 49.01416 2.54370 355 ft 9 kts 15°
2026-05-08 21:11 49.01449 2.54377 353 ft 1 kts
2026-05-08 21:11 49.01454 2.54379 353 ft 3 kts
2026-05-08 21:12 49.01463 2.54410 358 ft 2 kts 60°
2026-05-08 21:12 49.01467 2.54420 358 ft 0 kts 61°
2026-05-08 21:12 49.01451 2.54478 359 ft 0 kts 90°